FW5686 Weather Reports


Display with metric or nautical units.
time (UTC)temp
F
wind
direction
speed
MPH
gust
MPH
rain 1hr
in
rain 24hr
in
rain mn
in
humidity
%
barometer
mb
20260906071532 66 22 5.0 9.0 0.00 0.24 0.00 87 1016.1
20260906070035 66 64 5.0 11.0 0.00 0.24 0.00 87 1016.3
20260906064537 66 349 3.0 10.0 0.00 0.24 0.00 88 1016.3
20260906063036 67 17 5.0 11.0 0.00 0.24 0.00 88 1016.2
20260906061534 67 5 6.0 10.0 0.00 0.24 0.00 90 1016.1
20260906060035 68 26 7.0 12.0 0.00 0.24 0.00 91 1016.2
20260906054538 68 21 6.0 12.0 0.00 0.24 0.00 91 1016.1
20260906053037 69 28 5.0 8.0 0.00 0.24 0.00 92 1015.9
20260906051532 70 16 5.0 9.0 0.00 0.24 0.00 92 1015.9
20260906050037 71 36 4.0 9.0 0.00 0.24 0.00 92 1015.5
20260906044533 71 14 6.0 10.0 0.00 0.24 0.00 93 1015.6
20260906043033 71 12 5.0 9.0 0.00 0.24 0.00 93 1015.4
20260906041540 71 5 6.0 11.0 0.00 0.24 0.00 93 1015.5
20260906040036 71 15 7.0 12.0 0.00 0.24 0.00 93 1015.3
20260906034536 72 9 6.0 11.0 0.00 0.24 0.24 93 1015.3
20260906033038 72 360 5.0 10.0 0.00 0.24 0.24 93 1015.2
20260906031533 72 42 5.0 10.0 0.00 0.24 0.24 93 1015.4
20260906030034 73 16 4.0 8.0 0.00 0.24 0.24 92 1015.4
20260906024540 73 26 3.0 7.0 0.00 0.24 0.24 92 1015.4
20260906023042 73 20 3.0 6.0 0.00 0.24 0.24 92 1015.5
20260906021543 74 42 4.0 10.0 0.00 0.24 0.24 92 1015.4
20260906020034 74 20 5.0 10.0 0.00 0.24 0.24 92 1015.3
20260906014546 74 28 4.0 7.0 0.00 0.24 0.24 92 1014.9
20260906013042 75 23 5.0 11.0 0.00 0.24 0.24 92 1014.7
20260906011535 75 35 5.0 12.0 0.00 0.24 0.24 93 1014.6
20260906010036 75 55 5.0 11.0 0.00 0.24 0.24 93 1014.4
20260906004535 75 49 2.0 5.0 0.00 0.24 0.24 94 1014.3
20260906003037 74 5 2.0 4.0 0.00 0.24 0.24 93 1013.8
20260906001535 75 5 2.0 4.0 0.00 0.24 0.24 91 1013.8
20260906000036 75 332 2.0 4.0 0.00 0.24 0.24 89 1013.8
20260905234539 76 325 2.0 4.0 0.00 0.24 0.24 88 1013.9
20260905233035 76 0 1.0 7.0 0.00 0.24 0.24 90 1014.1
20260905231534 76 342 2.0 6.0 0.12 0.24 0.24 91 1014.0
20260905230037 76 336 2.0 10.0 0.12 0.24 0.24 90 1013.8
20260905224535 76 5 4.0 8.0 0.12 0.24 0.24 89 1013.8
20260905223035 78 24 3.0 8.0 0.12 0.24 0.24 86 1013.5
20260905221533 82 351 11.0 16.0 0.00 0.12 0.12 80 1013.4
20260905220037 86 348 0.0 4.0 0.00 0.12 0.12 73 1012.9
20260905214536 88 0 0.0 0.0 0.00 0.12 0.12 70 1012.7
20260905213036 90 292 2.0 6.0 0.00 0.12 0.12 66 1012.7
20260905211538 89 329 1.0 7.0 0.00 0.12 0.12 68 1012.8
20260905210035 89 269 2.0 8.0 0.00 0.12 0.12 68 1013.2
20260905204533 89 247 2.0 8.0 0.00 0.12 0.12 69 1013.4
20260905203034 89 248 3.0 9.0 0.00 0.12 0.12 68 1013.7
20260905201536 89 280 4.0 10.0 0.00 0.12 0.12 66 1013.8
20260905200040 89 252 4.0 8.0 0.00 0.12 0.12 66 1013.9
20260905194540 88 209 1.0 9.0 0.00 0.12 0.12 70 1014.1
20260905193036 88 288 2.0 8.0 0.00 0.12 0.12 67 1014.3
20260905191540 87 227 3.0 8.0 0.00 0.12 0.12 69 1014.4
20260905190048 87 250 3.0 9.0 0.00 0.12 0.12 68 1014.7
20260905184542 86 238 3.0 9.0 0.00 0.12 0.12 68 1015.2
20260905183033 86 201 4.0 10.0 0.00 0.12 0.12 68 1015.2
20260905181536 86 165 3.0 10.0 0.00 0.12 0.12 70 1015.2
20260905180034 85 256 3.0 9.0 0.00 0.12 0.12 72 1015.3
20260905174540 85 250 2.0 10.0 0.00 0.12 0.12 73 1015.4
20260905173036 84 231 3.0 9.0 0.00 0.12 0.12 72 1015.3
20260905171546 84 231 3.0 8.0 0.00 0.12 0.12 71 1015.4
20260905170037 84 211 4.0 9.0 0.00 0.12 0.12 74 1015.4
20260905164534 82 284 4.0 10.0 0.00 0.12 0.12 77 1015.0
20260905163034 80 205 5.0 9.0 0.00 0.12 0.12 78 1015.6
20260905161537 80 270 2.0 10.0 0.00 0.12 0.12 78 1015.9
20260905160036 80 211 6.0 13.0 0.00 0.12 0.12 75 1015.8
20260905154536 80 197 1.0 7.0 0.00 0.12 0.12 76 1015.9
20260905153047 78 153 5.0 9.0 0.00 0.12 0.12 77 1015.9
20260905151538 78 175 4.0 11.0 0.00 0.12 0.12 79 1015.6
20260905150036 77 213 5.0 10.0 0.00 0.12 0.12 79 1015.6
20260905144534 76 175 6.0 12.0 0.00 0.12 0.12 79 1015.5
20260905143036 75 180 3.0 9.0 0.00 0.12 0.12 82 1015.7
20260905141549 74 183 6.0 11.0 0.00 0.12 0.12 83 1015.8
20260905140033 73 184 4.0 9.0 0.00 0.12 0.12 84 1016.0
20260905134536 72 128 2.0 7.0 0.00 0.12 0.12 87 1016.0
20260905133033 71 161 3.0 6.0 0.00 0.12 0.12 88 1016.3
20260905131536 70 78 3.0 9.0 0.00 0.12 0.12 90 1016.5
20260905130036 69 0 0.0 3.0 0.00 0.12 0.12 92 1016.9
20260905124536 68 0 0.0 2.0 0.00 0.12 0.12 91 1016.8
20260905123036 67 107 2.0 7.0 0.00 0.12 0.12 92 1016.4
20260905121534 67 72 2.0 6.0 0.00 0.12 0.12 92 1016.1
20260905120035 67 107 3.0 8.0 0.00 0.12 0.12 91 1015.9
20260905114532 67 98 4.0 11.0 0.00 0.12 0.12 91 1016.4
20260905113034 67 65 4.0 9.0 0.00 0.12 0.12 91 1016.6
20260905111541 67 36 5.0 15.0 0.00 0.12 0.12 90 1016.6
20260905110033 67 17 8.0 14.0 0.00 0.12 0.12 90 1017.0
20260905104538 67 24 5.0 13.0 0.04 0.12 0.12 90 1017.0
20260905103038 67 28 9.0 14.0 0.12 0.12 0.12 91 1017.1
20260905101536 67 28 7.0 18.0 0.12 0.12 0.12 90 1016.9
20260905100035 67 42 12.0 21.0 0.12 0.12 0.12 90 1017.1
20260905094536 69 350 13.0 27.0 0.08 0.08 0.08 88 1017.3
20260905093038 70 5 16.0 33.0 0.00 0.00 0.00 85 1016.9
20260905091538 72 5 19.0 28.0 0.00 0.00 0.00 92 1016.5
20260905090046 71 0 0.0 3.0 0.00 0.00 0.00 94 1015.4
20260905084539 71 90 0.0 1.0 0.00 0.00 0.00 93 1015.5
20260905083044 72 0 0.0 0.0 0.00 0.00 0.00 93 1015.2
20260905081538 72 90 1.0 2.0 0.00 0.00 0.00 93 1015.2
20260905080043 72 0 0.0 3.0 0.00 0.00 0.00 92 1015.0
20260905074533 73 205 1.0 3.0 0.00 0.00 0.00 90 1015.0
20260905073038 73 0 0.0 1.0 0.00 0.00 0.00 91 1014.4